Wetterdaten: Sonntag, 15.09.2013
Datum Zeit Temperatur Luftfeuchte Luftdruck Regen Wind Richtung Richtung Taupunkt Windchill Windben
15.09.2013 00:00 11,6 C 95 % 1017,2 hPa 0,0 l/m 0,2 km/h (0 Bft) O-NO 67 10,8 C 11,8 C 0,0 km/h (0 Bft)
15.09.2013 00:05 11,6 C 95 % 1017,2 hPa 0,0 l/m 0,2 km/h (0 Bft) O-SO 112 10,8 C 11,8 C 0,0 km/h (0 Bft)
15.09.2013 00:10 11,5 C 95 % 1017,2 hPa 0,0 l/m 0,0 km/h (0 Bft) O-SO 112 10,7 C 11,8 C 0,0 km/h (0 Bft)
15.09.2013 00:15 11,6 C 95 % 1017,2 hPa 0,0 l/m 0,0 km/h (0 Bft) NO 45 10,8 C 11,8 C 0,0 km/h (0 Bft)
15.09.2013 00:20 11,6 C 95 % 1017,1 hPa 0,0 l/m 0,0 km/h (0 Bft) NO 45 10,8 C 11,8 C 1,8 km/h (1 Bft)
15.09.2013 00:25 11,6 C 95 % 1017,1 hPa 0,0 l/m 0,2 km/h (0 Bft) NO 45 10,8 C 11,8 C 0,0 km/h (0 Bft)
15.09.2013 00:30 11,7 C 95 % 1017,1 hPa 0,0 l/m 0,2 km/h (0 Bft) N-NW 337 10,9 C 11,8 C 0,0 km/h (0 Bft)
15.09.2013 00:35 11,6 C 95 % 1017,1 hPa 0,0 l/m 0,0 km/h (0 Bft) S-SW 202 10,8 C 11,9 C 0,0 km/h (0 Bft)
15.09.2013 00:40 11,6 C 96 % 1017,1 hPa 0,0 l/m 0,2 km/h (0 Bft) W 270 11,0 C 11,9 C 0,0 km/h (0 Bft)
15.09.2013 00:45 11,7 C 96 % 1017,1 hPa 0,0 l/m 0,8 km/h (0 Bft) S-SO 157 11,1 C 11,9 C 2,6 km/h (1 Bft)
15.09.2013 00:50 11,7 C 96 % 1017,1 hPa 0,0 l/m 0,6 km/h (0 Bft) O-SO 112 11,1 C 12,0 C 3,7 km/h (1 Bft)
15.09.2013 00:55 11,8 C 96 % 1017,1 hPa 0,0 l/m 0,6 km/h (0 Bft) O-SO 112 11,2 C 12,0 C 3,7 km/h (1 Bft)
15.09.2013 01:00 11,7 C 96 % 1016,8 hPa 0,0 l/m 1,1 km/h (1 Bft) S 180 11,1 C 12,0 C 0,0 km/h (0 Bft)
15.09.2013 01:05 11,7 C 96 % 1016,8 hPa 0,0 l/m 0,8 km/h (0 Bft) S 180 11,1 C 12,1 C 0,0 km/h (0 Bft)
15.09.2013 01:10 11,7 C 96 % 1016,8 hPa 0,0 l/m 0,2 km/h (0 Bft) W-NW 292 11,1 C 12,1 C 0,0 km/h (0 Bft)
15.09.2013 01:15 11,7 C 96 % 1016,8 hPa 0,0 l/m 0,0 km/h (0 Bft) S-SO 157 11,1 C 12,0 C 0,0 km/h (0 Bft)
15.09.2013 01:20 11,7 C 96 % 1016,8 hPa 0,0 l/m 0,0 km/h (0 Bft) SO 135 11,1 C 12,0 C 0,0 km/h (0 Bft)
15.09.2013 01:25 11,7 C 96 % 1016,8 hPa 0,0 l/m 0,0 km/h (0 Bft) NO 45 11,1 C 11,9 C 0,0 km/h (0 Bft)
15.09.2013 01:30 11,7 C 96 % 1016,8 hPa 0,0 l/m 0,0 km/h (0 Bft) N 360 11,1 C 11,9 C 0,0 km/h (0 Bft)
15.09.2013 01:35 11,6 C 96 % 1016,8 hPa 0,0 l/m 0,0 km/h (0 Bft) SO 135 11,0 C 11,9 C 0,0 km/h (0 Bft)
15.09.2013 01:40 11,6 C 96 % 1016,5 hPa 0,0 l/m 0,0 km/h (0 Bft) S-SW 202 11,0 C 11,9 C 1,6 km/h (1 Bft)
15.09.2013 01:45 11,7 C 96 % 1016,5 hPa 0,0 l/m 0,0 km/h (0 Bft) SO 135 11,1 C 11,9 C 0,0 km/h (0 Bft)
15.09.2013 01:50 11,7 C 96 % 1016,5 hPa 0,0 l/m 0,0 km/h (0 Bft) SO 135 11,1 C 11,9 C 0,0 km/h (0 Bft)
15.09.2013 01:55 11,7 C 96 % 1016,5 hPa 0,0 l/m 0,0 km/h (0 Bft) NO 45 11,1 C 11,8 C 0,0 km/h (0 Bft)
15.09.2013 02:00 11,6 C 96 % 1016,5 hPa 0,0 l/m 0,0 km/h (0 Bft) NO 45 11,0 C 11,8 C 0,0 km/h (0 Bft)
15.09.2013 02:05 11,5 C 96 % 1016,5 hPa 0,0 l/m 0,0 km/h (0 Bft) N-NO 22 10,9 C 11,7 C 0,0 km/h (0 Bft)
15.09.2013 02:10 11,5 C 96 % 1016,5 hPa 0,0 l/m 0,0 km/h (0 Bft) NO 45 10,9 C 11,7 C 0,0 km/h (0 Bft)
15.09.2013 02:15 11,4 C 96 % 1016,5 hPa 0,0 l/m 0,0 km/h (0 Bft) O 90 10,8 C 11,6 C 0,0 km/h (0 Bft)
15.09.2013 02:20 11,4 C 96 % 1016,3 hPa 0,0 l/m 0,0 km/h (0 Bft) W-NW 292 10,8 C 11,6 C 0,0 km/h (0 Bft)
15.09.2013 02:25 11,4 C 96 % 1016,3 hPa 0,0 l/m 0,0 km/h (0 Bft) NO 45 10,8 C 11,5 C 0,0 km/h (0 Bft)
15.09.2013 02:30 11,4 C 96 % 1016,3 hPa 0,0 l/m 0,0 km/h (0 Bft) N-NO 22 10,8 C 11,5 C 0,0 km/h (0 Bft)
15.09.2013 02:35 11,3 C 96 % 1016,3 hPa 0,0 l/m 0,0 km/h (0 Bft) O 90 10,7 C 11,5 C 0,0 km/h (0 Bft)
15.09.2013 02:40 11,3 C 96 % 1016,2 hPa 0,0 l/m 0,0 km/h (0 Bft) O-SO 112 10,7 C 11,5 C 0,0 km/h (0 Bft)
15.09.2013 02:45 11,3 C 96 % 1016,2 hPa 0,0 l/m 0,0 km/h (0 Bft) O-SO 112 10,7 C 11,5 C 0,0 km/h (0 Bft)
15.09.2013 02:50 11,3 C 96 % 1016,2 hPa 0,0 l/m 0,0 km/h (0 Bft) N-NW 337 10,7 C 11,5 C 0,0 km/h (0 Bft)
15.09.2013 02:55 11,2 C 96 % 1016,2 hPa 0,0 l/m 0,0 km/h (0 Bft) W-SW 247 10,6 C 11,4 C 0,0 km/h (0 Bft)
15.09.2013 03:00 11,2 C 96 % 1016,6 hPa 0,0 l/m 0,0 km/h (0 Bft) O 90 10,6 C 11,4 C 0,0 km/h (0 Bft)
15.09.2013 03:05 11,2 C 96 % 1016,6 hPa 0,0 l/m 0,0 km/h (0 Bft) S 180 10,6 C 11,3 C 0,0 km/h (0 Bft)
15.09.2013 03:10 11,2 C 96 % 1016,6 hPa 0,0 l/m 0,0 km/h (0 Bft) O 90 10,6 C 11,3 C 0,0 km/h (0 Bft)
15.09.2013 03:15 11,2 C 96 % 1016,6 hPa 0,0 l/m 0,0 km/h (0 Bft) O-NO 67 10,6 C 11,3 C 0,0 km/h (0 Bft)
15.09.2013 03:20 11,2 C 96 % 1015,9 hPa 0,0 l/m 0,0 km/h (0 Bft) O 90 10,6 C 11,3 C 0,0 km/h (0 Bft)
15.09.2013 03:25 11,2 C 96 % 1015,9 hPa 0,0 l/m 0,2 km/h (0 Bft) O-SO 112 10,6 C 11,4 C 0,0 km/h (0 Bft)
15.09.2013 03:30 11,3 C 96 % 1015,9 hPa 0,0 l/m 0,3 km/h (0 Bft) N-NO 22 10,7 C 11,5 C 0,0 km/h (0 Bft)
15.09.2013 03:35 11,3 C 96 % 1015,9 hPa 0,0 l/m 0,2 km/h (0 Bft) O 90 10,7 C 11,5 C 0,0 km/h (0 Bft)
15.09.2013 03:40 11,4 C 96 % 1015,5 hPa 0,0 l/m 0,3 km/h (0 Bft) O-SO 112 10,8 C 11,5 C 0,0 km/h (0 Bft)
15.09.2013 03:45 11,3 C 96 % 1015,5 hPa 0,0 l/m 0,2 km/h (0 Bft) NO 45 10,7 C 11,5 C 0,0 km/h (0 Bft)
15.09.2013 03:50 11,2 C 96 % 1015,5 hPa 0,0 l/m 0,0 km/h (0 Bft) W 270 10,6 C 11,5 C 0,0 km/h (0 Bft)
15.09.2013 03:55 11,2 C 96 % 1015,5 hPa 0,0 l/m 0,0 km/h (0 Bft) S-SO 157 10,6 C 11,4 C 0,0 km/h (0 Bft)
15.09.2013 04:00 11,3 C 96 % 1015,5 hPa 0,0 l/m 0,2 km/h (0 Bft) O-NO 67 10,7 C 11,4 C 0,0 km/h (0 Bft)
15.09.2013 04:05 11,3 C 96 % 1015,5 hPa 0,0 l/m 0,2 km/h (0 Bft) O-NO 67 10,7 C 11,4 C 1,8 km/h (1 Bft)
15.09.2013 04:10 11,3 C 96 % 1015,5 hPa 0,0 l/m 0,2 km/h (0 Bft) O-NO 67 10,7 C 11,4 C 0,0 km/h (0 Bft)
15.09.2013 04:15 11,2 C 96 % 1015,5 hPa 0,0 l/m 1,0 km/h (0 Bft) N 360 10,6 C 11,4 C 3,1 km/h (1 Bft)
15.09.2013 04:20 11,1 C 96 % 1015,6 hPa 0,0 l/m 0,8 km/h (0 Bft) SW 225 10,5 C 11,4 C 4,5 km/h (1 Bft)
15.09.2013 04:25 11,2 C 96 % 1015,6 hPa 0,0 l/m 1,1 km/h (1 Bft) O 90 10,6 C 11,3 C 1,8 km/h (1 Bft)
15.09.2013 04:30 11,2 C 96 % 1015,6 hPa 0,0 l/m 1,0 km/h (0 Bft) W-SW 247 10,6 C 11,3 C 0,0 km/h (0 Bft)
15.09.2013 04:35 11,2 C 96 % 1015,6 hPa 0,0 l/m 0,2 km/h (0 Bft) O-SO 112 10,6 C 11,3 C 0,0 km/h (0 Bft)
15.09.2013 04:40 11,2 C 96 % 1015,4 hPa 0,0 l/m 0,2 km/h (0 Bft) S 180 10,6 C 11,3 C 0,0 km/h (0 Bft)
15.09.2013 04:45 11,2 C 96 % 1015,4 hPa 0,0 l/m 0,2 km/h (0 Bft) S-SW 202 10,6 C 11,4 C 0,0 km/h (0 Bft)
15.09.2013 04:50 11,2 C 96 % 1015,4 hPa 0,0 l/m 0,0 km/h (0 Bft) S-SO 157 10,6 C 11,4 C 0,0 km/h (0 Bft)
15.09.2013 04:55 11,2 C 96 % 1015,4 hPa 0,0 l/m 0,0 km/h (0 Bft) S-SO 157 10,6 C 11,3 C 0,0 km/h (0 Bft)
15.09.2013 05:00 11,2 C 96 % 1015,3 hPa 0,0 l/m 0,0 km/h (0 Bft) O 90 10,6 C 11,3 C 0,0 km/h (0 Bft)
15.09.2013 05:05 11,3 C 96 % 1015,3 hPa 0,0 l/m 0,0 km/h (0 Bft) NO 45 10,7 C 11,4 C 0,0 km/h (0 Bft)
15.09.2013 05:10 11,4 C 96 % 1015,3 hPa 0,0 l/m 0,6 km/h (0 Bft) NO 45 10,8 C 11,5 C 1,9 km/h (1 Bft)
15.09.2013 05:15 11,5 C 96 % 1015,3 hPa 0,0 l/m 1,6 km/h (1 Bft) O 90 10,9 C 11,6 C 0,0 km/h (0 Bft)
15.09.2013 05:20 11,5 C 96 % 1015,3 hPa 0,0 l/m 1,1 km/h (1 Bft) N-NO 22 10,9 C 11,7 C 1,8 km/h (1 Bft)
15.09.2013 05:25 11,6 C 96 % 1015,3 hPa 0,0 l/m 1,3 km/h (1 Bft) O-NO 67 11,0 C 11,7 C 2,1 km/h (1 Bft)
15.09.2013 05:30 11,5 C 96 % 1015,3 hPa 0,0 l/m 1,1 km/h (1 Bft) O-SO 112 10,9 C 11,7 C 0,0 km/h (0 Bft)
15.09.2013 05:35 11,5 C 96 % 1015,3 hPa 0,0 l/m 0,2 km/h (0 Bft) O-SO 112 10,9 C 11,7 C 0,0 km/h (0 Bft)
15.09.2013 05:40 11,5 C 96 % 1015,6 hPa 0,0 l/m 0,0 km/h (0 Bft) NO 45 10,9 C 11,6 C 0,0 km/h (0 Bft)
15.09.2013 05:45 11,5 C 96 % 1015,6 hPa 0,0 l/m 0,0 km/h (0 Bft) O 90 10,9 C 11,6 C 0,0 km/h (0 Bft)
15.09.2013 05:50 11,5 C 96 % 1015,6 hPa 0,0 l/m 0,2 km/h (0 Bft) NO 45 10,9 C 11,7 C 0,0 km/h (0 Bft)
15.09.2013 05:55 11,6 C 96 % 1015,6 hPa 0,0 l/m 0,5 km/h (0 Bft) O-NO 67 11,0 C 11,7 C 0,0 km/h (0 Bft)
15.09.2013 06:00 11,6 C 96 % 1015,1 hPa 0,0 l/m 0,6 km/h (0 Bft) O-NO 67 11,0 C 11,7 C 1,9 km/h (1 Bft)
15.09.2013 06:05 11,6 C 96 % 1015,1 hPa 0,0 l/m 1,1 km/h (1 Bft) NO 45 11,0 C 11,7 C 3,5 km/h (1 Bft)
15.09.2013 06:10 11,6 C 96 % 1015,1 hPa 0,0 l/m 1,4 km/h (1 Bft) NO 45 11,0 C 11,7 C 4,8 km/h (1 Bft)
15.09.2013 06:15 11,5 C 96 % 1015,1 hPa 0,0 l/m 0,8 km/h (0 Bft) S 180 10,9 C 11,7 C 0,0 km/h (0 Bft)
15.09.2013 06:20 11,5 C 96 % 1014,9 hPa 0,0 l/m 0,2 km/h (0 Bft) S-SO 157 10,9 C 11,7 C 5,1 km/h (1 Bft)
15.09.2013 06:25 11,5 C 96 % 1014,9 hPa 0,0 l/m 0,0 km/h (0 Bft) O-SO 112 10,9 C 11,7 C 0,0 km/h (0 Bft)
15.09.2013 06:30 11,5 C 96 % 1014,9 hPa 0,0 l/m 0,0 km/h (0 Bft) N-NW 337 10,9 C 11,7 C 0,0 km/h (0 Bft)
15.09.2013 06:35 11,4 C 96 % 1014,9 hPa 0,0 l/m 0,0 km/h (0 Bft) S-SW 202 10,8 C 11,6 C 0,0 km/h (0 Bft)
15.09.2013 06:40 11,4 C 96 % 1014,8 hPa 0,0 l/m 0,0 km/h (0 Bft) S 180 10,8 C 11,5 C 0,0 km/h (0 Bft)
15.09.2013 06:45 11,3 C 96 % 1014,8 hPa 0,0 l/m 0,0 km/h (0 Bft) SO 135 10,7 C 11,3 C 0,0 km/h (0 Bft)
15.09.2013 06:50 11,2 C 96 % 1014,8 hPa 0,0 l/m 0,0 km/h (0 Bft) O 90 10,6 C 11,3 C 0,0 km/h (0 Bft)
15.09.2013 06:55 11,2 C 96 % 1014,8 hPa 0,0 l/m 0,0 km/h (0 Bft) N 360 10,6 C 11,3 C 0,0 km/h (0 Bft)
15.09.2013 07:00 11,1 C 96 % 1015,1 hPa 0,0 l/m 0,0 km/h (0 Bft) NO 45 10,5 C 11,3 C 0,0 km/h (0 Bft)
15.09.2013 07:05 11,2 C 96 % 1015,1 hPa 0,0 l/m 0,0 km/h (0 Bft) N-NW 337 10,6 C 11,3 C 0,0 km/h (0 Bft)
15.09.2013 07:10 11,2 C 96 % 1015,1 hPa 0,0 l/m 0,0 km/h (0 Bft) SO 135 10,6 C 11,3 C 1,6 km/h (1 Bft)
15.09.2013 07:15 11,3 C 96 % 1015,1 hPa 0,0 l/m 0,0 km/h (0 Bft) O-NO 67 10,7 C 11,4 C 0,0 km/h (0 Bft)
15.09.2013 07:20 11,3 C 96 % 1014,9 hPa 0,0 l/m 0,0 km/h (0 Bft) O-SO 112 10,7 C 11,4 C 0,0 km/h (0 Bft)
15.09.2013 07:25 11,4 C 96 % 1014,9 hPa 0,0 l/m 0,0 km/h (0 Bft) SO 135 10,8 C 11,5 C 0,0 km/h (0 Bft)
15.09.2013 07:30 11,3 C 96 % 1014,9 hPa 0,0 l/m 0,0 km/h (0 Bft) SW 225 10,7 C 11,5 C 0,0 km/h (0 Bft)
15.09.2013 07:35 11,3 C 96 % 1014,9 hPa 0,0 l/m 0,0 km/h (0 Bft) O-NO 67 10,7 C 11,5 C 0,0 km/h (0 Bft)
15.09.2013 07:40 11,3 C 96 % 1014,8 hPa 0,0 l/m 0,3 km/h (0 Bft) NO 45 10,7 C 11,5 C 0,0 km/h (0 Bft)
15.09.2013 07:45 11,5 C 96 % 1014,8 hPa 0,0 l/m 0,3 km/h (0 Bft) S 180 10,9 C 11,6 C 0,0 km/h (0 Bft)
15.09.2013 07:50 11,5 C 96 % 1014,8 hPa 0,0 l/m 0,2 km/h (0 Bft) O-SO 112 10,9 C 11,6 C 0,0 km/h (0 Bft)
15.09.2013 07:55 11,7 C 96 % 1014,8 hPa 0,0 l/m 0,0 km/h (0 Bft) O-SO 112 11,1 C 11,7 C 0,0 km/h (0 Bft)
15.09.2013 08:00 11,9 C 96 % 1014,9 hPa 0,0 l/m 0,0 km/h (0 Bft) N-NO 22 11,3 C 11,9 C 1,8 km/h (1 Bft)
15.09.2013 08:05 12,0 C 96 % 1014,9 hPa 0,0 l/m 0,2 km/h (0 Bft) N-NO 22 11,4 C 12,0 C 0,0 km/h (0 Bft)
15.09.2013 08:10 12,2 C 96 % 1014,9 hPa 0,0 l/m 0,5 km/h (0 Bft) O-NO 67 11,6 C 12,2 C 0,0 km/h (0 Bft)
15.09.2013 08:15 12,3 C 96 % 1014,9 hPa 0,0 l/m 0,3 km/h (0 Bft) N-NO 22 11,7 C 12,3 C 0,0 km/h (0 Bft)
15.09.2013 08:20 12,4 C 96 % 1014,8 hPa 0,0 l/m 0,2 km/h (0 Bft) NO 45 11,8 C 12,5 C 0,0 km/h (0 Bft)
15.09.2013 08:25 12,5 C 96 % 1014,8 hPa 0,0 l/m 0,0 km/h (0 Bft) O 90 11,9 C 12,6 C 0,0 km/h (0 Bft)
15.09.2013 08:30 12,6 C 96 % 1014,8 hPa 0,0 l/m 0,0 km/h (0 Bft) S-SO 157 12,0 C 12,7 C 0,0 km/h (0 Bft)
15.09.2013 08:35 12,7 C 96 % 1014,8 hPa 0,0 l/m 0,0 km/h (0 Bft) NO 45 12,1 C 12,9 C 0,0 km/h (0 Bft)
15.09.2013 08:40 12,9 C 96 % 1014,8 hPa 0,0 l/m 0,2 km/h (0 Bft) S 180 12,3 C 13,1 C 2,7 km/h (1 Bft)
15.09.2013 08:45 13,0 C 95 % 1014,8 hPa 0,0 l/m 0,6 km/h (0 Bft) O 90 12,2 C 13,2 C 0,0 km/h (0 Bft)
15.09.2013 08:50 13,0 C 95 % 1014,8 hPa 0,0 l/m 0,6 km/h (0 Bft) N-NO 22 12,2 C 13,4 C 0,0 km/h (0 Bft)
15.09.2013 08:55 12,9 C 96 % 1014,8 hPa 0,0 l/m 0,0 km/h (0 Bft) N-NW 337 12,3 C 13,4 C 0,0 km/h (0 Bft)
15.09.2013 09:00 12,9 C 96 % 1014,7 hPa 0,0 l/m 0,0 km/h (0 Bft) N-NO 22 12,3 C 13,5 C 0,0 km/h (0 Bft)
15.09.2013 09:05 13,0 C 95 % 1014,7 hPa 0,0 l/m 0,0 km/h (0 Bft) S 180 12,2 C 13,4 C 0,0 km/h (0 Bft)
15.09.2013 09:10 13,0 C 95 % 1014,7 hPa 0,0 l/m 0,0 km/h (0 Bft) N 360 12,2 C 13,5 C 0,0 km/h (0 Bft)
15.09.2013 09:15 13,1 C 95 % 1014,7 hPa 0,0 l/m 0,0 km/h (0 Bft) N-NO 22 12,3 C 13,6 C 0,0 km/h (0 Bft)
15.09.2013 09:20 13,3 C 95 % 1014,4 hPa 0,0 l/m 0,0 km/h (0 Bft) S 180 12,5 C 13,8 C 0,0 km/h (0 Bft)
15.09.2013 09:25 13,5 C 95 % 1014,4 hPa 0,0 l/m 0,0 km/h (0 Bft) W-NW 292 12,7 C 14,1 C 0,0 km/h (0 Bft)
15.09.2013 09:30 13,6 C 95 % 1014,4 hPa 0,0 l/m 0,0 km/h (0 Bft) O-SO 112 12,8 C 14,2 C 0,0 km/h (0 Bft)
15.09.2013 09:35 14,0 C 95 % 1014,4 hPa 0,0 l/m 0,3 km/h (0 Bft) O-SO 112 13,2 C 14,6 C 0,0 km/h (0 Bft)
15.09.2013 09:40 13,9 C 95 % 1014,7 hPa 0,0 l/m 0,3 km/h (0 Bft) W-SW 247 13,1 C 14,7 C 0,0 km/h (0 Bft)
15.09.2013 09:45 13,9 C 95 % 1014,7 hPa 0,0 l/m 0,0 km/h (0 Bft) S-SW 202 13,1 C 14,8 C 0,0 km/h (0 Bft)
15.09.2013 09:50 13,9 C 95 % 1014,7 hPa 0,0 l/m 0,0 km/h (0 Bft) S-SO 157 13,1 C 14,7 C 0,0 km/h (0 Bft)
15.09.2013 09:55 13,9 C 95 % 1014,7 hPa 0,0 l/m 0,0 km/h (0 Bft) S-SO 157 13,1 C 14,6 C 0,0 km/h (0 Bft)
15.09.2013 10:00 13,9 C 95 % 1014,7 hPa 0,0 l/m 0,0 km/h (0 Bft) W-NW 292 13,1 C 14,6 C 0,0 km/h (0 Bft)
15.09.2013 10:05 13,8 C 94 % 1014,7 hPa 0,0 l/m 0,0 km/h (0 Bft) W 270 12,9 C 14,5 C 0,0 km/h (0 Bft)
15.09.2013 10:10 13,9 C 94 % 1014,7 hPa 0,0 l/m 0,0 km/h (0 Bft) N-NO 22 12,9 C 14,6 C 0,0 km/h (0 Bft)
15.09.2013 10:15 14,1 C 94 % 1014,7 hPa 0,0 l/m 0,0 km/h (0 Bft) W-NW 292 13,1 C 14,8 C 0,0 km/h (0 Bft)
15.09.2013 10:20 14,3 C 94 % 1014,7 hPa 0,0 l/m 0,3 km/h (0 Bft) W-NW 292 13,3 C 14,9 C 0,0 km/h (0 Bft)
15.09.2013 10:25 14,3 C 94 % 1014,7 hPa 0,0 l/m 1,0 km/h (0 Bft) N-NW 337 13,3 C 15,0 C 1,6 km/h (1 Bft)
15.09.2013 10:30 14,3 C 94 % 1014,7 hPa 0,0 l/m 1,3 km/h (1 Bft) N-NO 22 13,3 C 15,2 C 2,7 km/h (1 Bft)
15.09.2013 10:35 14,6 C 93 % 1014,7 hPa 0,0 l/m 1,3 km/h (1 Bft) S-SW 202 13,5 C 15,4 C 1,6 km/h (1 Bft)
15.09.2013 10:40 14,5 C 93 % 1014,8 hPa 0,0 l/m 1,6 km/h (1 Bft) N-NW 337 13,4 C 15,4 C 4,7 km/h (1 Bft)
15.09.2013 10:45 14,2 C 92 % 1014,8 hPa 0,0 l/m 2,3 km/h (1 Bft) N-NO 22 12,9 C 15,4 C 1,6 km/h (1 Bft)
15.09.2013 10:50 14,2 C 91 % 1014,8 hPa 0,0 l/m 2,1 km/h (1 Bft) N 360 12,8 C 15,4 C 5,5 km/h (1 Bft)
15.09.2013 10:55 14,3 C 90 % 1014,8 hPa 0,0 l/m 2,3 km/h (1 Bft) N 360 12,7 C 15,4 C 3,4 km/h (1 Bft)
15.09.2013 11:00 14,4 C 89 % 1014,7 hPa 0,0 l/m 2,7 km/h (1 Bft) W-NW 292 12,6 C 15,4 C 2,3 km/h (1 Bft)
15.09.2013 11:05 14,5 C 87 % 1014,7 hPa 0,0 l/m 2,1 km/h (1 Bft) S-SW 202 12,4 C 15,6 C 0,0 km/h (0 Bft)
15.09.2013 11:10 14,8 C 88 % 1014,7 hPa 0,0 l/m 1,9 km/h (1 Bft) W 270 12,8 C 15,8 C 2,9 km/h (1 Bft)
15.09.2013 11:15 14,6 C 87 % 1014,7 hPa 0,0 l/m 2,1 km/h (1 Bft) N 360 12,5 C 15,8 C 3,2 km/h (1 Bft)
15.09.2013 11:20 14,7 C 87 % 1014,4 hPa 0,0 l/m 2,3 km/h (1 Bft) N 360 12,6 C 15,8 C 3,2 km/h (1 Bft)
15.09.2013 11:25 14,6 C 87 % 1014,4 hPa 0,0 l/m 2,6 km/h (1 Bft) W 270 12,5 C 15,7 C 3,9 km/h (1 Bft)
15.09.2013 11:30 14,7 C 87 % 1014,4 hPa 0,0 l/m 2,4 km/h (1 Bft) W-NW 292 12,6 C 15,7 C 2,6 km/h (1 Bft)
15.09.2013 11:35 14,7 C 86 % 1014,4 hPa 0,0 l/m 2,3 km/h (1 Bft) W-NW 292 12,4 C 15,8 C 3,5 km/h (1 Bft)
15.09.2013 11:40 14,8 C 85 % 1014,2 hPa 0,0 l/m 2,6 km/h (1 Bft) W-NW 292 12,3 C 15,8 C 1,6 km/h (1 Bft)
15.09.2013 11:45 15,1 C 85 % 1014,2 hPa 0,0 l/m 2,7 km/h (1 Bft) N 360 12,6 C 16,1 C 1,9 km/h (1 Bft)
15.09.2013 11:50 15,4 C 85 % 1014,2 hPa 0,0 l/m 2,7 km/h (1 Bft) NO 45 12,9 C 16,4 C 6,1 km/h (2 Bft)
15.09.2013 11:55 15,6 C 84 % 1014,2 hPa 0,0 l/m 2,6 km/h (1 Bft) W-SW 247 12,9 C 16,8 C 3,9 km/h (1 Bft)
15.09.2013 12:00 15,8 C 81 % 1014,8 hPa 0,0 l/m 3,1 km/h (1 Bft) O-NO 67 12,5 C 17,1 C 7,2 km/h (2 Bft)
15.09.2013 12:05 16,0 C 80 % 1014,8 hPa 0,0 l/m 3,5 km/h (1 Bft) S-SW 202 12,5 C 17,5 C 1,9 km/h (1 Bft)
15.09.2013 12:10 16,0 C 80 % 1014,8 hPa 0,0 l/m 2,4 km/h (1 Bft) N-NW 337 12,5 C 17,8 C 3,7 km/h (1 Bft)
15.09.2013 12:15 16,2 C 81 % 1014,8 hPa 0,0 l/m 2,3 km/h (1 Bft) N 360 12,9 C 17,9 C 3,4 km/h (1 Bft)
15.09.2013 12:20 16,6 C 80 % 1014,8 hPa 0,0 l/m 3,1 km/h (1 Bft) NW 315 13,1 C 18,1 C 4,8 km/h (1 Bft)
15.09.2013 12:25 17,1 C 81 % 1014,8 hPa 0,0 l/m 3,4 km/h (1 Bft) W-NW 292 13,8 C 18,2 C 5,3 km/h (1 Bft)
15.09.2013 12:30 16,9 C 79 % 1014,8 hPa 0,0 l/m 3,7 km/h (1 Bft) N-NW 337 13,2 C 18,4 C 3,7 km/h (1 Bft)
15.09.2013 12:35 18,4 C 81 % 1014,8 hPa 0,0 l/m 3,1 km/h (1 Bft) W-NW 292 15,1 C 19,5 C 3,2 km/h (1 Bft)
15.09.2013 12:40 17,9 C 78 % 1014,8 hPa 0,0 l/m 3,2 km/h (1 Bft) W 270 14,0 C 19,8 C 5,8 km/h (2 Bft)
15.09.2013 12:45 18,1 C 76 % 1014,8 hPa 0,0 l/m 4,3 km/h (1 Bft) W-NW 292 13,8 C 19,8 C 2,6 km/h (1 Bft)
15.09.2013 12:50 18,4 C 77 % 1014,8 hPa 0,0 l/m 3,2 km/h (1 Bft) N-NO 22 14,3 C 20,3 C 7,4 km/h (2 Bft)
15.09.2013 12:55 18,0 C 76 % 1014,8 hPa 0,0 l/m 1,6 km/h (1 Bft) NO 45 13,7 C 20,3 C 3,1 km/h (1 Bft)
15.09.2013 13:00 17,8 C 79 % 1014,5 hPa 0,0 l/m 1,4 km/h (1 Bft) N-NW 337 14,1 C 20,1 C 1,9 km/h (1 Bft)
15.09.2013 13:05 17,8 C 79 % 1014,5 hPa 0,0 l/m 1,8 km/h (1 Bft) W-NW 292 14,1 C 19,5 C 0,0 km/h (0 Bft)
15.09.2013 13:10 17,9 C 79 % 1014,5 hPa 0,0 l/m 1,9 km/h (1 Bft) W-SW 247 14,2 C 19,2 C 1,8 km/h (1 Bft)
15.09.2013 13:15 18,1 C 78 % 1014,5 hPa 0,0 l/m 1,3 km/h (1 Bft) W-SW 247 14,2 C 19,4 C 1,8 km/h (1 Bft)
15.09.2013 13:20 18,5 C 75 % 1014,8 hPa 0,0 l/m 1,1 km/h (1 Bft) W-SW 247 14,0 C 19,7 C 2,7 km/h (1 Bft)
15.09.2013 13:25 18,9 C 70 % 1014,8 hPa 0,0 l/m 0,5 km/h (0 Bft) N 360 13,3 C 20,7 C 0,0 km/h (0 Bft)
15.09.2013 13:30 19,4 C 73 % 1014,8 hPa 0,0 l/m 0,5 km/h (0 Bft) W 270 14,4 C 21,4 C 2,6 km/h (1 Bft)
15.09.2013 13:35 18,8 C 70 % 1014,8 hPa 0,0 l/m 1,4 km/h (1 Bft) S 180 13,2 C 21,1 C 3,4 km/h (1 Bft)
15.09.2013 13:40 18,9 C 69 % 1014,8 hPa 0,0 l/m 1,6 km/h (1 Bft) S 180 13,1 C 21,1 C 0,0 km/h (0 Bft)
15.09.2013 13:45 18,9 C 68 % 1014,8 hPa 0,0 l/m 1,9 km/h (1 Bft) W-NW 292 12,9 C 21,0 C 2,9 km/h (1 Bft)
15.09.2013 13:50 18,8 C 67 % 1014,8 hPa 0,0 l/m 2,3 km/h (1 Bft) S 180 12,5 C 20,6 C 2,7 km/h (1 Bft)
15.09.2013 13:55 19,0 C 67 % 1014,8 hPa 0,0 l/m 2,1 km/h (1 Bft) W 270 12,7 C 20,3 C 0,0 km/h (0 Bft)
15.09.2013 14:00 19,1 C 66 % 1014,6 hPa 0,0 l/m 1,9 km/h (1 Bft) S-SW 202 12,6 C 20,5 C 1,6 km/h (1 Bft)
15.09.2013 14:05 19,1 C 65 % 1014,6 hPa 0,0 l/m 1,8 km/h (1 Bft) S 180 12,4 C 20,5 C 0,0 km/h (0 Bft)
15.09.2013 14:10 19,2 C 64 % 1014,6 hPa 0,0 l/m 1,8 km/h (1 Bft) SW 225 12,2 C 20,6 C 1,6 km/h (1 Bft)
15.09.2013 14:15 19,0 C 64 % 1014,6 hPa 0,0 l/m 1,6 km/h (1 Bft) W-SW 247 12,0 C 20,5 C 0,0 km/h (0 Bft)
15.09.2013 14:20 19,1 C 66 % 1014,7 hPa 0,0 l/m 1,0 km/h (0 Bft) W-SW 247 12,6 C 20,5 C 0,0 km/h (0 Bft)
15.09.2013 14:25 18,8 C 67 % 1014,7 hPa 0,0 l/m 0,6 km/h (0 Bft) W-NW 292 12,5 C 20,3 C 0,0 km/h (0 Bft)
15.09.2013 14:30 18,7 C 67 % 1014,7 hPa 0,0 l/m 1,1 km/h (1 Bft) W 270 12,4 C 20,2 C 3,1 km/h (1 Bft)
15.09.2013 14:35 18,6 C 67 % 1014,7 hPa 0,0 l/m 1,4 km/h (1 Bft) W-NW 292 12,3 C 20,0 C 0,0 km/h (0 Bft)
15.09.2013 14:40 18,6 C 67 % 1014,4 hPa 0,0 l/m 1,8 km/h (1 Bft) SW 225 12,3 C 19,9 C 1,8 km/h (1 Bft)
15.09.2013 14:45 18,5 C 67 % 1014,4 hPa 0,0 l/m 1,9 km/h (1 Bft) NO 45 12,3 C 19,6 C 1,8 km/h (1 Bft)
15.09.2013 14:50 18,6 C 67 % 1014,4 hPa 0,0 l/m 1,9 km/h (1 Bft) SW 225 12,3 C 19,6 C 4,5 km/h (1 Bft)
15.09.2013 14:55 18,0 C 67 % 1014,4 hPa 0,0 l/m 2,9 km/h (1 Bft) W-SW 247 11,8 C 19,2 C 3,4 km/h (1 Bft)
15.09.2013 15:00 18,1 C 68 % 1013,8 hPa 0,0 l/m 3,4 km/h (1 Bft) W-NW 292 12,1 C 19,1 C 3,7 km/h (1 Bft)
15.09.2013 15:05 18,2 C 69 % 1013,8 hPa 0,0 l/m 2,4 km/h (1 Bft) S 180 12,4 C 19,1 C 3,4 km/h (1 Bft)
15.09.2013 15:10 18,2 C 67 % 1013,8 hPa 0,0 l/m 2,7 km/h (1 Bft) S 180 12,0 C 19,2 C 4,3 km/h (1 Bft)
15.09.2013 15:15 18,3 C 67 % 1013,8 hPa 0,0 l/m 3,4 km/h (1 Bft) W-SW 247 12,1 C 19,2 C 3,4 km/h (1 Bft)
15.09.2013 15:20 18,3 C 66 % 1013,8 hPa 0,0 l/m 3,2 km/h (1 Bft) W-SW 247 11,8 C 19,2 C 3,5 km/h (1 Bft)
15.09.2013 15:25 18,3 C 66 % 1013,8 hPa 0,0 l/m 2,3 km/h (1 Bft) W-SW 247 11,8 C 19,3 C 2,6 km/h (1 Bft)
15.09.2013 15:30 18,3 C 67 % 1013,8 hPa 0,0 l/m 1,8 km/h (1 Bft) W-SW 247 12,1 C 19,4 C 1,6 km/h (1 Bft)
15.09.2013 15:35 18,5 C 68 % 1013,8 hPa 0,0 l/m 2,1 km/h (1 Bft) S 180 12,5 C 19,5 C 2,4 km/h (1 Bft)
15.09.2013 15:40 18,5 C 68 % 1013,6 hPa 0,0 l/m 2,3 km/h (1 Bft) W-SW 247 12,5 C 19,5 C 2,4 km/h (1 Bft)
15.09.2013 15:45 18,1 C 68 % 1013,6 hPa 0,0 l/m 3,4 km/h (1 Bft) S 180 12,1 C 19,2 C 4,3 km/h (1 Bft)
15.09.2013 15:50 17,9 C 67 % 1013,6 hPa 0,0 l/m 4,0 km/h (1 Bft) SW 225 11,7 C 19,1 C 8,2 km/h (2 Bft)
15.09.2013 15:55 17,7 C 68 % 1013,6 hPa 0,0 l/m 3,7 km/h (1 Bft) S-SW 202 11,7 C 18,8 C 1,9 km/h (1 Bft)
15.09.2013 16:00 17,5 C 69 % 1013,5 hPa 0,0 l/m 4,3 km/h (1 Bft) S 180 11,7 C 18,6 C 9,2 km/h (2 Bft)
15.09.2013 16:05 17,3 C 69 % 1013,5 hPa 0,0 l/m 3,5 km/h (1 Bft) W-SW 247 11,6 C 18,3 C 4,8 km/h (1 Bft)
15.09.2013 16:10 17,4 C 70 % 1013,5 hPa 0,0 l/m 3,1 km/h (1 Bft) S 180 11,9 C 18,2 C 10,1 km/h (2 Bft)
15.09.2013 16:15 17,5 C 70 % 1013,5 hPa 0,0 l/m 2,6 km/h (1 Bft) S-SW 202 12,0 C 18,2 C 2,3 km/h (1 Bft)
15.09.2013 16:20 17,5 C 71 % 1013,2 hPa 0,0 l/m 1,9 km/h (1 Bft) S 180 12,2 C 18,3 C 0,0 km/h (0 Bft)
15.09.2013 16:25 17,5 C 70 % 1013,2 hPa 0,0 l/m 1,6 km/h (1 Bft) S-SO 157 12,0 C 18,4 C 4,8 km/h (1 Bft)
15.09.2013 16:30 17,4 C 70 % 1013,2 hPa 0,0 l/m 2,3 km/h (1 Bft) S 180 11,9 C 18,4 C 5,3 km/h (1 Bft)
15.09.2013 16:35 17,2 C 70 % 1013,2 hPa 0,0 l/m 2,9 km/h (1 Bft) SO 135 11,7 C 18,3 C 3,4 km/h (1 Bft)
15.09.2013 16:40 17,2 C 70 % 1013,0 hPa 0,0 l/m 2,7 km/h (1 Bft) SW 225 11,7 C 18,3 C 2,9 km/h (1 Bft)
15.09.2013 16:45 17,2 C 69 % 1013,0 hPa 0,0 l/m 2,3 km/h (1 Bft) S 180 11,5 C 18,3 C 4,8 km/h (1 Bft)
15.09.2013 16:50 17,2 C 69 % 1013,0 hPa 0,0 l/m 2,6 km/h (1 Bft) W-SW 247 11,5 C 18,3 C 5,6 km/h (1 Bft)
15.09.2013 16:55 17,4 C 70 % 1013,0 hPa 0,0 l/m 2,7 km/h (1 Bft) S 180 11,9 C 18,3 C 3,2 km/h (1 Bft)
15.09.2013 17:00 17,5 C 70 % 1013,1 hPa 0,0 l/m 1,9 km/h (1 Bft) O-SO 112 12,0 C 18,4 C 0,0 km/h (0 Bft)
15.09.2013 17:05 17,5 C 70 % 1013,1 hPa 0,0 l/m 0,6 km/h (0 Bft) S 180 12,0 C 18,7 C 0,0 km/h (0 Bft)
15.09.2013 17:10 17,5 C 70 % 1013,1 hPa 0,0 l/m 1,0 km/h (0 Bft) S-SW 202 12,0 C 18,7 C 2,7 km/h (1 Bft)
15.09.2013 17:15 17,3 C 70 % 1013,1 hPa 0,0 l/m 1,9 km/h (1 Bft) S 180 11,8 C 18,4 C 3,5 km/h (1 Bft)
15.09.2013 17:20 17,2 C 70 % 1012,9 hPa 0,0 l/m 1,4 km/h (1 Bft) S-SO 157 11,7 C 18,3 C 2,3 km/h (1 Bft)
15.09.2013 17:25 17,1 C 72 % 1012,9 hPa 0,0 l/m 0,8 km/h (0 Bft) S-SO 157 12,0 C 18,3 C 2,3 km/h (1 Bft)
15.09.2013 17:30 16,8 C 72 % 1012,9 hPa 0,0 l/m 0,6 km/h (0 Bft) SO 135 11,7 C 18,2 C 0,0 km/h (0 Bft)
15.09.2013 17:35 16,7 C 73 % 1012,9 hPa 0,0 l/m 0,8 km/h (0 Bft) SO 135 11,8 C 18,1 C 0,0 km/h (0 Bft)
15.09.2013 17:40 16,6 C 73 % 1012,8 hPa 0,0 l/m 0,6 km/h (0 Bft) SO 135 11,7 C 17,9 C 0,0 km/h (0 Bft)
15.09.2013 17:45 16,4 C 74 % 1012,8 hPa 0,0 l/m 0,6 km/h (0 Bft) S 180 11,8 C 17,8 C 0,0 km/h (0 Bft)
15.09.2013 17:50 16,3 C 74 % 1012,8 hPa 0,0 l/m 0,6 km/h (0 Bft) W-SW 247 11,7 C 17,6 C 2,4 km/h (1 Bft)
15.09.2013 17:55 16,3 C 74 % 1012,8 hPa 0,0 l/m 1,8 km/h (1 Bft) S 180 11,7 C 17,4 C 4,3 km/h (1 Bft)
15.09.2013 18:00 16,1 C 74 % 1012,6 hPa 0,0 l/m 1,6 km/h (1 Bft) S-SW 202 11,5 C 17,2 C 0,0 km/h (0 Bft)
15.09.2013 18:05 15,8 C 76 % 1012,6 hPa 0,0 l/m 1,1 km/h (1 Bft) S 180 11,6 C 16,9 C 0,0 km/h (0 Bft)
15.09.2013 18:10 15,7 C 76 % 1012,6 hPa 0,0 l/m 1,0 km/h (0 Bft) O-SO 112 11,5 C 16,7 C 0,0 km/h (0 Bft)
15.09.2013 18:15 15,5 C 77 % 1012,6 hPa 0,0 l/m 0,3 km/h (0 Bft) O-SO 112 11,5 C 16,6 C 0,0 km/h (0 Bft)
15.09.2013 18:20 15,4 C 77 % 1012,6 hPa 0,0 l/m 0,2 km/h (0 Bft) SO 135 11,4 C 16,5 C 0,0 km/h (0 Bft)
15.09.2013 18:25 15,4 C 78 % 1012,6 hPa 0,0 l/m 0,6 km/h (0 Bft) O-SO 112 11,6 C 16,3 C 0,0 km/h (0 Bft)
15.09.2013 18:30 15,4 C 78 % 1012,6 hPa 0,0 l/m 0,6 km/h (0 Bft) O-SO 112 11,6 C 16,2 C 0,0 km/h (0 Bft)
15.09.2013 18:35 15,3 C 78 % 1012,6 hPa 0,0 l/m 0,3 km/h (0 Bft) O-NO 67 11,5 C 16,1 C 0,0 km/h (0 Bft)
15.09.2013 18:40 15,1 C 78 % 1012,4 hPa 0,0 l/m 0,0 km/h (0 Bft) S 180 11,3 C 16,0 C 0,0 km/h (0 Bft)
15.09.2013 18:45 14,9 C 79 % 1012,4 hPa 0,0 l/m 0,0 km/h (0 Bft) O 90 11,3 C 15,8 C 0,0 km/h (0 Bft)
15.09.2013 18:50 14,8 C 79 % 1012,4 hPa 0,0 l/m 0,2 km/h (0 Bft) O 90 11,2 C 15,7 C 0,0 km/h (0 Bft)
15.09.2013 18:55 14,6 C 80 % 1012,4 hPa 0,0 l/m 0,2 km/h (0 Bft) NO 45 11,2 C 15,5 C 0,0 km/h (0 Bft)
15.09.2013 19:00 14,6 C 80 % 1012,4 hPa 0,0 l/m 0,0 km/h (0 Bft) O 90 11,2 C 15,6 C 0,0 km/h (0 Bft)
15.09.2013 19:05 14,6 C 80 % 1012,4 hPa 0,0 l/m 0,2 km/h (0 Bft) O 90 11,2 C 16,3 C 0,0 km/h (0 Bft)
15.09.2013 19:10 14,5 C 81 % 1012,4 hPa 0,0 l/m 0,3 km/h (0 Bft) NO 45 11,3 C 16,0 C 3,2 km/h (1 Bft)
15.09.2013 19:15 14,3 C 81 % 1012,4 hPa 0,0 l/m 0,8 km/h (0 Bft) O-SO 112 11,1 C 15,4 C 2,7 km/h (1 Bft)
15.09.2013 19:20 14,1 C 81 % 1012,5 hPa 0,0 l/m 1,4 km/h (1 Bft) N-NO 22 10,9 C 15,0 C 2,9 km/h (1 Bft)
15.09.2013 19:25 14,0 C 82 % 1012,5 hPa 0,0 l/m 1,4 km/h (1 Bft) NO 45 11,0 C 14,6 C 3,1 km/h (1 Bft)
15.09.2013 19:30 14,0 C 82 % 1012,5 hPa 0,0 l/m 1,3 km/h (1 Bft) O 90 11,0 C 14,3 C 2,1 km/h (1 Bft)
15.09.2013 19:35 13,8 C 82 % 1012,5 hPa 0,0 l/m 1,0 km/h (0 Bft) NO 45 10,8 C 14,0 C 3,9 km/h (1 Bft)
15.09.2013 19:40 13,7 C 82 % 1012,6 hPa 0,0 l/m 0,3 km/h (0 Bft) O 90 10,7 C 13,9 C 1,8 km/h (1 Bft)
15.09.2013 19:45 13,8 C 82 % 1012,6 hPa 0,0 l/m 0,6 km/h (0 Bft) S-SO 157 10,8 C 13,8 C 0,0 km/h (0 Bft)
15.09.2013 19:50 13,6 C 82 % 1012,6 hPa 0,0 l/m 0,8 km/h (0 Bft) NO 45 10,6 C 13,7 C 2,7 km/h (1 Bft)
15.09.2013 19:55 13,4 C 82 % 1012,6 hPa 0,0 l/m 0,3 km/h (0 Bft) SO 135 10,4 C 13,6 C 0,0 km/h (0 Bft)
15.09.2013 20:00 13,5 C 83 % 1012,8 hPa 0,0 l/m 0,2 km/h (0 Bft) O-SO 112 10,7 C 13,5 C 0,0 km/h (0 Bft)
15.09.2013 20:05 13,5 C 83 % 1012,8 hPa 0,0 l/m 0,5 km/h (0 Bft) NO 45 10,7 C 13,5 C 3,9 km/h (1 Bft)
15.09.2013 20:10 13,5 C 83 % 1012,8 hPa 0,0 l/m 1,0 km/h (0 Bft) S-SO 157 10,7 C 13,5 C 3,2 km/h (1 Bft)
15.09.2013 20:15 13,4 C 83 % 1012,8 hPa 0,0 l/m 1,1 km/h (1 Bft) O-NO 67 10,6 C 13,6 C 1,6 km/h (1 Bft)
15.09.2013 20:20 13,4 C 83 % 1012,9 hPa 0,0 l/m 1,0 km/h (0 Bft) O-SO 112 10,6 C 13,7 C 3,5 km/h (1 Bft)
15.09.2013 20:25 13,4 C 84 % 1012,9 hPa 0,0 l/m 1,1 km/h (1 Bft) O-NO 67 10,8 C 13,8 C 1,9 km/h (1 Bft)
15.09.2013 20:30 13,2 C 84 % 1012,9 hPa 0,0 l/m 1,4 km/h (1 Bft) O-SO 112 10,6 C 13,7 C 0,0 km/h (0 Bft)
15.09.2013 20:35 13,2 C 83 % 1012,9 hPa 0,0 l/m 1,1 km/h (1 Bft) O-NO 67 10,4 C 13,6 C 0,0 km/h (0 Bft)
15.09.2013 20:40 13,2 C 83 % 1013,0 hPa 0,0 l/m 0,8 km/h (0 Bft) NO 45 10,4 C 13,6 C 2,7 km/h (1 Bft)
15.09.2013 20:45 13,3 C 83 % 1013,0 hPa 0,0 l/m 1,1 km/h (1 Bft) O-SO 112 10,5 C 13,5 C 2,9 km/h (1 Bft)
15.09.2013 20:50 13,3 C 83 % 1013,0 hPa 0,0 l/m 1,1 km/h (1 Bft) O-SO 112 10,5 C 13,4 C 0,0 km/h (0 Bft)
15.09.2013 20:55 13,0 C 83 % 1013,0 hPa 0,0 l/m 0,5 km/h (0 Bft) O 90 10,2 C 13,2 C 2,6 km/h (1 Bft)
15.09.2013 21:00 13,0 C 83 % 1013,1 hPa 0,0 l/m 1,0 km/h (0 Bft) O-NO 67 10,2 C 13,0 C 2,3 km/h (1 Bft)
15.09.2013 21:05 12,7 C 84 % 1013,1 hPa 0,0 l/m 1,1 km/h (1 Bft) O-NO 67 10,1 C 12,8 C 2,6 km/h (1 Bft)
15.09.2013 21:10 12,8 C 84 % 1013,1 hPa 0,0 l/m 1,0 km/h (0 Bft) SO 135 10,2 C 12,8 C 1,8 km/h (1 Bft)
15.09.2013 21:15 12,7 C 84 % 1013,1 hPa 0,0 l/m 0,8 km/h (0 Bft) O 90 10,1 C 12,8 C 0,0 km/h (0 Bft)
15.09.2013 21:20 12,6 C 84 % 1013,2 hPa 0,0 l/m 0,6 km/h (0 Bft) SO 135 10,0 C 12,8 C 2,9 km/h (1 Bft)
15.09.2013 21:25 12,5 C 85 % 1013,2 hPa 0,0 l/m 1,4 km/h (1 Bft) S 180 10,0 C 12,8 C 3,9 km/h (1 Bft)
15.09.2013 21:30 12,3 C 85 % 1013,2 hPa 0,0 l/m 1,9 km/h (1 Bft) S 180 9,9 C 12,8 C 0,0 km/h (0 Bft)
15.09.2013 21:35 12,3 C 85 % 1013,2 hPa 0,0 l/m 1,9 km/h (1 Bft) NO 45 9,9 C 12,8 C 3,1 km/h (1 Bft)
15.09.2013 21:40 12,3 C 85 % 1012,9 hPa 0,0 l/m 1,4 km/h (1 Bft) SO 135 9,9 C 12,8 C 2,3 km/h (1 Bft)
15.09.2013 21:45 12,3 C 85 % 1012,9 hPa 0,0 l/m 1,8 km/h (1 Bft) S 180 9,9 C 12,9 C 3,2 km/h (1 Bft)
15.09.2013 21:50 12,4 C 86 % 1012,9 hPa 0,0 l/m 1,9 km/h (1 Bft) SW 225 10,1 C 13,0 C 0,0 km/h (0 Bft)
15.09.2013 21:55 12,3 C 86 % 1012,9 hPa 0,0 l/m 1,8 km/h (1 Bft) S-SO 157 10,0 C 12,9 C 2,7 km/h (1 Bft)
15.09.2013 22:00 12,5 C 86 % 1013,1 hPa 0,0 l/m 1,9 km/h (1 Bft) S-SO 157 10,2 C 12,9 C 3,9 km/h (1 Bft)
15.09.2013 22:05 12,8 C 86 % 1013,1 hPa 0,0 l/m 2,4 km/h (1 Bft) SO 135 10,5 C 13,2 C 0,0 km/h (0 Bft)
15.09.2013 22:10 13,0 C 85 % 1013,1 hPa 0,0 l/m 2,6 km/h (1 Bft) S 180 10,5 C 13,2 C 5,5 km/h (1 Bft)
15.09.2013 22:15 13,0 C 85 % 1013,1 hPa 0,0 l/m 2,9 km/h (1 Bft) S-SO 157 10,5 C 13,4 C 3,7 km/h (1 Bft)
15.09.2013 22:20 12,9 C 86 % 1013,1 hPa 0,0 l/m 3,5 km/h (1 Bft) S-SO 157 10,6 C 13,4 C 2,6 km/h (1 Bft)
15.09.2013 22:25 12,9 C 86 % 1013,1 hPa 0,0 l/m 3,9 km/h (1 Bft) S-SO 157 10,6 C 13,4 C 6,3 km/h (2 Bft)
15.09.2013 22:30 12,9 C 86 % 1013,1 hPa 0,0 l/m 4,0 km/h (1 Bft) S-SO 157 10,6 C 13,4 C 5,1 km/h (1 Bft)
15.09.2013 22:35 13,1 C 85 % 1013,1 hPa 0,0 l/m 5,1 km/h (1 Bft) S 180 10,6 C 13,5 C 8,0 km/h (2 Bft)
15.09.2013 22:40 13,1 C 85 % 1013,1 hPa 0,0 l/m 5,6 km/h (1 Bft) S 180 10,6 C 13,5 C 16,7 km/h (3 Bft)
15.09.2013 22:45 13,0 C 85 % 1013,1 hPa 0,0 l/m 5,5 km/h (1 Bft) S-SO 157 10,5 C 13,6 C 5,3 km/h (1 Bft)
15.09.2013 22:50 13,0 C 85 % 1013,1 hPa 0,0 l/m 5,3 km/h (1 Bft) S 180 10,5 C 13,5 C 4,8 km/h (1 Bft)
15.09.2013 22:55 13,1 C 85 % 1013,1 hPa 0,0 l/m 6,1 km/h (2 Bft) S-SO 157 10,6 C 13,4 C 9,0 km/h (2 Bft)
15.09.2013 23:00 13,0 C 85 % 1013,2 hPa 0,0 l/m 6,3 km/h (2 Bft) SO 135 10,5 C 13,1 C 4,8 km/h (1 Bft)
15.09.2013 23:05 12,8 C 86 % 1013,2 hPa 0,0 l/m 5,1 km/h (1 Bft) O-SO 112 10,5 C 12,9 C 8,4 km/h (2 Bft)
15.09.2013 23:10 12,9 C 86 % 1013,2 hPa 0,0 l/m 5,0 km/h (1 Bft) S-SO 157 10,6 C 12,8 C 4,3 km/h (1 Bft)
15.09.2013 23:15 13,0 C 85 % 1013,2 hPa 0,0 l/m 6,3 km/h (2 Bft) S-SO 157 10,5 C 12,6 C 12,6 km/h (3 Bft)
15.09.2013 23:20 13,1 C 85 % 1013,3 hPa 0,0 l/m 6,8 km/h (2 Bft) S 180 10,6 C 12,4 C 15,6 km/h (3 Bft)
15.09.2013 23:25 12,9 C 86 % 1013,3 hPa 0,0 l/m 6,9 km/h (2 Bft) S 180 10,6 C 12,1 C 7,6 km/h (2 Bft)
15.09.2013 23:30 12,7 C 86 % 1013,3 hPa 0,0 l/m 6,0 km/h (2 Bft) O 90 10,4 C 12,6 C 2,9 km/h (1 Bft)
15.09.2013 23:35 12,6 C 86 % 1013,3 hPa 0,0 l/m 3,4 km/h (1 Bft) S-SO 157 10,3 C 12,5 C 4,3 km/h (1 Bft)
15.09.2013 23:40 12,7 C 87 % 1013,2 hPa 0,0 l/m 4,2 km/h (1 Bft) S-SO 157 10,6 C 12,6 C 8,4 km/h (2 Bft)
15.09.2013 23:45 12,7 C 87 % 1013,2 hPa 0,0 l/m 5,1 km/h (1 Bft) S 180 10,6 C 12,7 C 13,8 km/h (3 Bft)
15.09.2013 23:50 12,7 C 87 % 1013,2 hPa 0,0 l/m 5,5 km/h (1 Bft) S 180 10,6 C 12,7 C 9,5 km/h (2 Bft)
15.09.2013 23:55 12,7 C 87 % 1013,2 hPa 0,0 l/m 6,1 km/h (2 Bft) S 180 10,6 C 12,6 C 10,0 km/h (2 Bft)
_ Min-Zeit 07:00 14:15 19:15 - 19:00 - - 21:45 07:10 22:05
Minimum _ 11,1 C 64 % 1012,4 hPa - 0,0 km/h (0 Bft) - - 9,9 C 11,3 C 0,0 km/h (0 Bft)
_ Max-Zeit 13:30 09:00 00:15 23:55 23:25 - - 12:35 13:30 22:40
Maximum _ 19,4 C 96 % 1017,2 hPa 0,0 l/m 6,9 km/h
S (2 Bft)
- - 15,1 C 21,4 C 16,7 km/h
S (3 Bft)
Durchschnitt _ 13,9 C 86 % 1014,5 hPa #0,0 l/m 1,3 km/h (1 Bft) S - 11,5 C 14,5 C 1,9 km/h (1 Bft)